Regional Weather Roundup
Issued by NWS Charleston, SC

Current Version | Previous Version | Graphics & Text | Print | Product List | Glossary On
Versions: 1 2 3 4 5 6 7 8 9 10 11 12 13 14 15 16 17 18 19 20 21 22 23 24 25 26 27 28 29 30 31 32 33 34 35 36 37 38 39 40 41 42 43 44 45 46 47 48 49 50
981
ASUS42 KCHS 221512
RWRCHS

REGIONAL WEATHER ROUNDUP
NATIONAL WEATHER SERVICE CHARLESTON SC
1100 AM EDT SUN OCT 22 2017

NOTE: "FAIR" INDICATES FEW OR NO CLOUDS BELOW 12,000 FEET WITH NO
SIGNIFICANT WEATHER AND/OR OBSTRUCTIONS TO VISIBILITY.

NOT ALL STATIONS ARE QUALITY CONTROLLED. USE DATA WITH CAUTION...
ESPECIALLY DEWPOINT OBSERVATIONS.

SCZ027-030-031-034>040-042>050-221600-
...SOUTHEAST SOUTH CAROLINA...

CITY           SKY/WX    TMP DP  RH WIND       PRES   REMARKS
N CHARLESTON   MOSUNNY   77  67  71 E10       30.28F
WATERFRONT PRK   N/A     75  67  76 NE12      30.13
JOHNS ISLAND   PTSUNNY   79  68  69 NE12      30.27F
PINOPOLIS        N/A     72  70  94 E7        30.22S
MONCKS CORNER  FAIR      73  68  83 E7        30.29F
SUMMERVILLE    CLOUDY    73  66  78 E5        30.29F
BEAUFORT MCAS  CLOUDY    76  68  76 MISG      30.27S
BEAUFORT ARPT  CLOUDY    73  66  78 NE10      30.26S
HILTON HEAD IS DRIZZLE   75  68  78 NE9       30.26F
WALTERBORO     CLOUDY    73  66  78 E8        30.29S
ALLENDALE        N/A     75  64  69 VRB6        N/A

...SOUTHERN MIDLANDS AND PEE DEE...

CITY           SKY/WX    TMP DP  RH WIND       PRES   REMARKS
GEORGETOWN     CLOUDY    73  68  83 E7        30.32S
KINGSTREE      FAIR      75  64  69 E3        30.31F
ORANGEBURG     MOSUNNY   74  64  71 E8        30.31S
BARNWELL         N/A     77  66  69 E10       30.30S
AIKEN          FAIR      73  61  64 E9        30.34F
MANNING        FAIR      73  57  56 MISG      30.31F
COLUMBIA       MOSUNNY   76  62  62 E9        30.31F
SUMTER         SUNNY     74  60  61 E10       30.30F
FLORENCE       SUNNY     74  63  68 E12       30.34S
MYRTLE BEACH   PTSUNNY   74  68  81 E10       30.33S
N MYRTLE BEACH PTSUNNY   76  66  71 E12G17    30.32S

$$

GAZ063-065-086>088-099>101-113>116-118-119-134>141-150-221600-
...SOUTHEAST GEORGIA...

CITY           SKY/WX    TMP DP  RH WIND       PRES   REMARKS
SAVANNAH ARPT  LGT RAIN  72  70  93 E9        30.27R FOG
HUNTER AAF     DRIZZLE   72  70  93 E9        30.24S FOG
FORT STEWART   CLOUDY    71  68  90 NE7       30.24S
STATESBORO     CLOUDY    76  62  60 E6        30.27S
SYLVANIA       PTSUNNY   76  68  76 E7        30.28S
CLAXTON        CLOUDY    74  67  78 NE3       30.26S

...CSRA...CENTRAL AND FAR SOUTHEAST GEORGIA...

CITY           SKY/WX    TMP DP  RH WIND       PRES   REMARKS
THOMSON        SUNNY     74  63  68 S12       30.33F
AUGUSTA-BUSH   SUNNY     78  64  61 E10       30.28F
AUGUSTA-DANIEL SUNNY     76  63  64 E13       30.30F
SWAINSBORO     CLOUDY    77  64  65 MISG      30.26F
VIDALIA        MOSUNNY   81  68  65 E17       30.25S
EASTMAN        CLOUDY    79  57  46 SE9       30.26S
HAZLEHURST     FAIR      78  63  60 E9        30.22F
ALMA           MOSUNNY   78  69  73 E10       30.22F
WAYCROSS       MOSUNNY   79  69  72 E9        30.22F
JESUP          NOT AVBL
BAXLEY         FAIR      75  70  83 E10       30.23S
BRUNSWICK      CLOUDY    77  70  78 NE9       30.23S
SAINT SIMONS   MOSUNNY   80  74  81 NE13      30.21F

$$

SCZ027-028-034-036>038-045-046-048>050-GAZ119-141-221600-
...LAKE AND SUPPLEMENTAL COASTAL OBSERVATIONS...

STATION/POSITION TIME  TEMP    WIND        PRES    WAVE   SWELL
                       AIR SEA DIR/SP/G            HT/PER HT/PER/DIR
                 (UTC) (F)     (DEG/KT/KT) (MB)    (FT/S) (FT/S/D)
WINYAH BAY       1345   74      70/ 12     1026.0
LAKE MURRAY      1420   69      80/  6/  9 1026.1
ACE BASIN NERRS  1345   72      30/  3     1025.0
FORT PULASKI     1448   71 73  100/ 11/ 13 1025.2R
SAPELO ISLAND    NOT AVBL

$$

ANZ835-935-AMZ111-154-330-350-352-354-370-450-454-472-221600-
...C-MAN AND BUOY OBSERVATIONS...

STATION/POSITION TIME  TEMP    WIND        PRES    WAVE   SWELL
                       AIR SEA DIR/SP/G            HT/PER HT/PER/DIR
                 (UTC) (F)     (DEG/KT/KT) (MB)    (FT/S) (FT/S/D)
BUOY 41004       1450   78 79   90/ 17/ 21 1024.5F   5/ 7   3/110/ 9
BUOY 41008       1450   77 77   90/  8/  8 1022.9F   5/ 7   5/140/ 7
FOLLY BEACH CMAN 1400   73      40/ 12/ 14 1025.9R
CAPERS NEARSHORE 1408   71 73   50/ 10/ 16 1025.2R
FRIPP NEARSHORE  1408   74      50/ 12/ 16   N/A


STATION/POSITION TIME  TEMP    WIND        PRES    WAVE   SWELL
                       AIR SEA DIR/SP/G            HT/PER HT/PER/DIR
                 (UTC) (F)     (DEG/KT/KT) (MB)    (FT/S) (FT/S/D)
5E ST. MARYS GA  1430      77                N/A     5/ 7
FRYING PAN BUOY  1450   77 76  100/ 10/ 12 1026.6F   3/ 9   3/130/ 9
BUOY 41025       1450   76 81   60/  8/ 12 1027.7F   3/ 8   2/110/ 8
CAPE LOOKOUT NC  1400   71     360/ 10/ 12 1027.6R
BUOY 41002       1350   77 80  100/ 12/ 14 1026.3    4/ 8   3/ 90/ 8
BUOY 41010       NOT AVBL
ST AUGUSTINE FL  1500   79 77  100/  7/  8 1022.3F


$$




USA.gov is the U.S. government's official web portal to all federal, state and local government web resources and services.